sat.trackr.live / text

‹ back to catalog

KUIPER-00263

NORAD 68586 · 2026-072P

PAYLOAD ACTIVE UNKNOWN

§ Identity

Operator
Country
US
Launch date
2026-04-04
Launch site
AFETR
Launch vehicle
Mass (kg)
RCS (m²)

External: N2YO · Heavens-Above · Gunter

§ Orbital elements

Epoch: 2026-05-25T02:42:47.743776Z

Period
93.65 min
Inclination
51.8767°
Eccentricity
0.0000996
Mean motion
15.37705540 rev/d
Perigee alt
452.2 km
Apogee alt
453.6 km
Semi-major
6,831.0 km
B*
8.4254e-4
RAAN
288.2860°
Arg perigee
253.9841°
Mean anomaly
106.1036°
Rev number
783

§ Raw data

KUIPER-002631 68586U 26072P   26145.11305259  .00031427  00000+0  84254-3 0  99962 68586  51.8767 288.2860 0000996 253.9841 106.1036 15.37705540  7831

JSON: /api/v1/satellites/68586 · /tle

For live sub-satellite position, see the globe view (requires WebGL).

§ Visibility from observer

Set your observer location to see the next 7 days of passes ≥ 10°. The values pass through the URL so the page stays shareable.

No JS? Fill the form by hand. The geolocation button needs JavaScript.